K9SET Weather Reports


time (UTC)temp
C
wind
direction
speed
KPH
gust
KPH
rain 1hr
cm
rain 24hr
cm
rain mn
cm
humidity
%
barometer
mb
20211017150334 12 222 0.0 8.0 0.00 0.00 0.00 73 1023.1
20211017143323 10 227 3.2 4.8 0.00 0.00 0.00 83 1023.1
20211017140355 8 311 1.6 3.2 0.00 0.00 0.00 96 1023.1
20211017133409 7 144 0.0 0.0 0.00 0.00 0.00 96 1023.1
20211017130330 5 142 0.0 0.0 0.00 0.00 0.00 96 1023.0
20211017123355 2 142 0.0 3.2 0.00 0.00 0.00 96 1022.9
20211017120409 2 136 0.0 0.0 0.00 0.00 0.00 96 1022.6
20211017113328 2 136 0.0 1.6 0.00 0.00 0.00 96 1022.6
20211017110337 2 138 0.0 0.0 0.00 0.00 0.00 95 1022.3
20211017103355 2 138 0.0 0.0 0.00 0.00 0.00 95 1022.2
20211017100328 3 138 0.0 0.0 0.00 0.00 0.00 96 1022.0
20211017093336 3 138 0.0 0.0 0.00 0.00 0.00 95 1022.0
20211017090336 3 138 0.0 0.0 0.00 0.00 0.00 95 1021.8
20211017083319 3 138 0.0 0.0 0.00 0.00 0.00 95 1021.6
20211017080328 3 138 0.0 0.0 0.00 0.00 0.00 95 1021.6
20211017073320 3 138 0.0 0.0 0.00 0.00 0.00 95 1021.6
20211017070324 3 138 0.0 0.0 0.00 0.00 0.00 95 1021.8
20211017063407 4 138 0.0 0.0 0.00 0.00 0.00 95 1021.7
20211017060350 5 138 0.0 0.0 0.00 0.00 0.00 94 1021.6
20211017053332 5 117 0.0 0.0 0.00 0.00 0.00 94 1021.5
20211017050332 5 34 0.0 0.0 0.00 0.00 0.00 93 1021.5
20211017043335 6 34 0.0 0.0 0.00 0.00 0.00 92 1021.5
20211017040336 6 34 0.0 0.0 0.00 0.00 0.00 90 1021.6
20211017033323 6 34 0.0 0.0 0.00 0.00 0.36 89 1021.5
20211017030338 7 34 0.0 0.0 0.00 0.00 0.36 89 1021.6
20211017023332 7 28 0.0 0.0 0.00 0.00 0.36 87 1021.4
20211017013359 8 34 0.0 0.0 0.00 0.00 0.36 81 1020.7